Location: Buchloe
(48.0161°N, 10.7316°E)
Time: 06:25:41
(UTC+01:00)

ISS - Pass Details

Date: 02 December 2021
Orbit: 413 x 422 km, 51.6° (Epoch: 29 January)

Event Time Altitude Azimuth Distance (km) Brightness Sun altitude
Rises 17:45:40 0° 289° (WNW) 2,386 1.0 -12.9°
Reaches altitude 10° 17:47:49 10° 294° (WNW) 1,517 -0.2 -13.2°
Maximum altitude 17:51:10 53° 13° (NNE) 526 -3.5 -13.7°
Enters shadow 17:52:42 27° 78° (ENE) 839 -2.8 -14.0°
